Location: *
(50.8667°S, 179.2667°W)
Time: 01:29:47
(UTC+00:00)

Cosmos 2082 - Pass Details

Date: 02 October 2023
Orbit: 834 x 854 km, 71.0° (Epoch: 01 December)

Event Time Altitude Azimuth Distance (km) Brightness Sun altitude
Rises 15:14:35 0° 211° (SSW) 3,465 6.9 -19.8°
Reaches altitude 10° 15:17:04 10° 213° (SSW) 2,523 6.2 -19.4°
Maximum altitude 15:22:51 70° 295° (WNW) 921 3.6 -18.7°
Drops below altitude 10° 15:28:33 10° 17° (NNE) 2,492 6.0 -17.9°
Sets 15:30:59 0° 19° (NNE) 3,418 6.8 -17.6°
